Location: Champs
(48.8539°N, 2.6040°E)
Time: 19:44:02
(UTC+00:00)

ATLAS CENTAUR R/B - Pass Details

Date: 29 May 2022
Orbit: 443 x 688 km, 64.6° (Epoch: 07 June)

Event Time Altitude Azimuth Distance (km) Brightness Sun altitude
Rises 00:08:17 0° 304° (NW) 3,041 5.5 -19.4°
Reaches altitude 10° 00:12:29 10° 269° (W) 2,081 4.2 -19.3°
Enters shadow 00:13:42 11° 254° (WSW) 2,002 3.9 -19.3°
